Regional Weather Roundup
Issued by NWS Sterling, VA

Home | Current Version | Previous Version | Graphics & Text | Print | Product List | Glossary On
Versions: 1 2 3 4 5 6 7 8 9 10 11 12 13 14 15 16 17 18 19 20 21 22 23 24 25 26 27 28 29 30 31 32 33 34 35 36 37 38 39 40 41 42 43 44 45 46 47 48 49 50
832
ASUS41 KLWX 210711
RWRLWX

REGIONAL WEATHER ROUNDUP
NATIONAL WEATHER SERVICE BALTIMORE MD/WASHINGTON DC
300 AM EDT THU SEP 21 2017

Note: "FAIR" indicates few or no clouds below 12,000 feet
with no significant weather and/or obstructions to visibility.
 TC=TEMPERATURE CELSIUS

 * =Non NWS site. Station does not report precipitation (e.g. rain,
    snow, etc.), thunder, or fog.

DCZ001-MDZ009-015-VAZ040>042-051-053>054-210800-
WASHINGTON METRO

CITY           SKY/WX    TMP DP  RH WIND       PRES   REMARKS
WASHINGTON NAT CLEAR     72  65  78 CALM      29.99F
DULLES         CLEAR     60  60 100 CALM      30.00F
ANDREWS AFB    CLEAR     65  62  90 CALM      29.98F
FT BELVOIR     CLEAR     62  61  96 CALM      29.99F
QUANTICO       CLEAR     66  64  93 NW8       30.00F
COLLEGE PARK*  CLEAR     63  62  97 CALM      29.99S
LEESBURG*      CLEAR     63  63 100 CALM      30.02F
MANASSAS*      CLEAR     59  58  96 CALM      30.01F
GAITHERSBURG*  CLEAR     61  60  97 CALM      30.02S

$$

MDZ006>007-011-014-210800-
BALTIMORE METRO

CITY           SKY/WX    TMP DP  RH WIND       PRES   REMARKS
BWI AIRPORT    CLEAR     65  63  93 CALM      29.99S
MD SCIENCE CTR   N/A     76  62  62 MISG      29.99S
MARTIN STATE   CLEAR     68  64  88 CALM      29.99F
ANNAPOLIS      CLEAR     71  69  93 CALM      29.98S
FORT MEADE*    CLEAR     61  61 100 CALM      30.01F

$$

MDZ012-015-019>023-210800-
MARYLAND EASTERN SHORE

CITY           SKY/WX    TMP DP  RH WIND       PRES   REMARKS
OCEAN CITY     PTCLDY   N/A N/A N/A CALM      29.97S
SALISBURY      CLEAR     66  65  96 CALM      29.97S
CAMBRIDGE*     CLEAR     64  64 100 CALM      29.97F
EASTON*        CLEAR    N/A N/A N/A CALM      30.01F

$$

MDZ017>025-210800-
SOUTHERN MARYLAND

CITY           SKY/WX    TMP DP  RH WIND       PRES   REMARKS
PATUXENT RIVER CLEAR     67  64  90 CALM      29.97F
ST INIGOES     CLEAR     63  63 100 CALM      29.97F
LEONARDTOWN*   CLEAR     63  61  94 CALM      30.00S

$$

MDZ003>005-210800-
NORTH CENTRAL MARYLAND

CITY           SKY/WX    TMP DP  RH WIND       PRES   REMARKS
FREDERICK*     CLEAR     61  61 100 CALM      30.04F
HAGERSTOWN APT CLEAR     63  59  87 NW6       30.04R
WESTMINSTER*   CLEAR     64  63  94 CALM      30.02F

$$

MDZ501>502-210800-
WESTERN MARYLAND

CITY           SKY/WX    TMP DP  RH WIND       PRES   REMARKS
OAKLAND*       CLEAR     61  61 100 CALM      30.12S
CUMBERLAND*    CLEAR     63  63 100 CALM      30.10S

$$

VAZ025>031-210800-
SHENANDOAH VALLEY

CITY           SKY/WX    TMP DP  RH WIND       PRES   REMARKS
WINCHESTER*    CLEAR     57  57 100 CALM      30.03F
FRONT ROYAL*   CLEAR     64  63  94 S5        30.03F
LURAY*         CLEAR     61  61 100 CALM      30.05F FOG
NEW MARKET*    CLEAR     59  58  96 CALM      30.05S
STAUNTON*      CLEAR     61  61  99 CALM      30.08F FOG
WAYNESBORO*    MOCLDY    63  63 100 CALM      30.07F

$$

WVZ021-048>050-054>055-210800-
EASTERN WEST VIRGINIA PANHANDLE

CITY           SKY/WX    TMP DP  RH WIND       PRES   REMARKS
MARTINSBURG    CLEAR     59  57  93 CALM      30.02F
PETERSBURG*    CLEAR     62  62  99 CALM      30.07S FOG

$$

VAZ036>039-050-210800-
CENTRAL FOOTHILLS

CITY           SKY/WX    TMP DP  RH WIND       PRES   REMARKS
CHARLOTTESVILL CLEAR     70  67  90 W3        30.02F
CULPEPER*      CLEAR     65  63  95 CALM      30.02F
ORANGE*        CLEAR     63  61  94 CALM      30.02S FOG
GORDONSVILLE*  CLEAR     64  64 100 CALM      30.01F
WARRENTON*     FOG       57  54  91 CALM      30.00F VSB 1/4

$$

VAZ055>057-210800-
NORTH AND CENTRAL PIEDMONT

CITY           SKY/WX    TMP DP  RH WIND       PRES   REMARKS
FREDERICKSBRG* CLEAR     64  64 100 CALM      29.99S
STAFFORD*      CLEAR     60  60 100 CALM      30.03F

$$

NCZ024-NYZ072-PAZ021-071-VAZ022-071-210800-
OTHER REGIONAL OBSERVATIONS

CITY           SKY/WX    TMP DP  RH WIND       PRES   REMARKS
NEW YORK CITY  MOCLDY    73  63  70 VRB6      29.97F
PHILADELPHIA   PTCLDY    72  64  76 NW7       29.97F
PITTSBURGH     CLEAR     66  64  93 NW3       30.08R
ROANOKE        CLEAR     66  65  96 CALM      30.07F
RICHMOND       MOCLDY    66  64  93 CALM      29.99F
RALEIGH        PTCLDY    68  67  96 CALM      30.01S

$$

ANZ530>537-210800-
MARINE OBSERVATIONS

STATION/POSITION TIME  TEMP    WIND        PRES
                       AIR SEA DIR/SP/G
                 (UTC) (F)     (DEG/KT/KT) (MB)
THOMAS PT LIGHT  0700   72 76  320/  6/  6   N/A
BALT KEY BRIDGE  0648   75     330/  5/  6 1015.2F
COVE POINT       0648   73     330/  5/  6 1015.7F
LEWISETTA        0648   72 76  260/  3/  4 1014.9F
SOLOMONS ISLAND  0648   71 76  320/  2/  4 1014.6F
PINEY POINT      0636           20/  6/  6   N/A

$$





USA.gov is the U.S. government's official web portal to all federal, state and local government web resources and services.